East Taunton, MA

7:25 AM EST on January 24, 2017 (GMT -0500)
Taunton Municipal

Weather History for KTAN - June, 2013

Change the Weather History Date:

Monday, June 10, 2013

  Actual Average Record
Temperature  
Mean Temperature 62 °F -  
Max Temperature 73 °F 76 °F 99 °F (2008)
Min Temperature 52 °F 52 °F 37 °F (1957)
Degree Days  
Heating Degree Days 2    
Growing Degree Days 12 (Base 50)    
Moisture  
Dew Point 56 °F    
Average Humidity 88    
Maximum Humidity 97    
Minimum Humidity 57    
Precipitation  
Precipitation 0.92 in - - ()
Sea Level Pressure  
Sea Level Pressure 30.14 in    
Wind  
Wind Speed 2 mph (East)    
Max Wind Speed 9 mph    
Max Gust Speed -    
Visibility 4 miles    
Events Fog , Rain    
Averages and records for this station are not official NWS values.
T = Trace of Precipitation, MM = Missing Value Source: NWS Daily Summary

Daily Weather History Graph

Daily Weather History Graph

Search for Another Location

Airport or City:

Trip Planner

Search our weather history database for the weather conditions in past years. The results will help you decide how hot, cold, wet, or windy it might be!

Date:

Astronomy

Jun. 10, 2013 Rise Set
Actual Time 5:08 AM EDT 8:18 PM EDT
Civil Twilight 4:34 AM EDT 8:52 PM EDT
Nautical Twilight 3:50 AM EDT 9:36 PM EDT
Astronomical Twilight 2:58 AM EDT 10:29 PM EDT
Moon 6:55 AM EDT (6/10) 9:41 PM EDT (6/10)
Length of Visible Light 16h 18m
Length of Day
15h 10m
Waxing Crescent, 4% of the Moon is Illuminated
Jun 10
Waxing Crescent
Jun 16
First Quarter
Jun 23
Full
Jun 30
Last Quarter
Jul 8
New

Hourly Weather History & Observations

Time (EDT) Temp. Dew Point Humidity Pressure Visibility Wind Dir Wind Speed Gust Speed Precip Events Conditions
12:52 AM 57.9 °F 55.0 °F 90% 30.17 in 5.0 mi Calm Calm - N/A   Clear
1:40 AM 55.9 °F 54.0 °F 93% 30.17 in 1.8 mi Calm Calm - N/A   Clear
1:47 AM 57.2 °F 55.4 °F 94% 30.17 in 1.2 mi Calm Calm - N/A   Clear
1:52 AM 57.0 °F 55.0 °F 93% 30.17 in 1.5 mi Calm Calm - N/A   Clear
1:59 AM 55.9 °F 54.0 °F 93% 30.16 in 0.8 mi Calm Calm - N/A   Clear
2:10 AM 55.9 °F 55.0 °F 97% 30.16 in 1.5 mi Calm Calm - N/A   Clear
2:14 AM 55.0 °F 54.0 °F 96% 30.16 in 4.0 mi Calm Calm - N/A   Clear
2:26 AM 55.0 °F 53.1 °F 93% 30.16 in 1.8 mi Calm Calm - N/A   Clear
2:37 AM 55.0 °F 53.1 °F 93% 30.16 in 2.5 mi Calm Calm - N/A   Clear
2:40 AM 55.0 °F 53.1 °F 93% 30.17 in 1.0 mi Calm Calm - N/A   Clear
2:47 AM 55.4 °F 53.6 °F 94% 30.17 in 0.8 mi Calm Calm - N/A   Clear
2:52 AM 54.0 °F 53.1 °F 97% 30.17 in 1.5 mi Calm Calm - N/A   Clear
2:59 AM 54.0 °F 53.1 °F 97% 30.17 in 0.8 mi Calm Calm - N/A   Clear
3:44 AM 54.0 °F 52.0 °F 93% 30.17 in 0.2 mi Calm Calm - N/A Fog Fog
3:52 AM 53.1 °F 52.0 °F 96% 30.17 in 0.5 mi Calm Calm - N/A Fog Fog
4:25 AM 53.1 °F 52.0 °F 96% 30.17 in 0.5 mi Calm Calm - N/A Fog Fog
4:33 AM 53.1 °F 51.1 °F 93% 30.17 in 0.8 mi Calm Calm - N/A   Mist
4:52 AM 52.0 °F 50.0 °F 93% 30.18 in 0.5 mi Calm Calm - N/A Fog Fog
5:17 AM 52.0 °F 51.1 °F 97% 30.17 in 0.2 mi Calm Calm - N/A Fog Fog
5:52 AM 53.1 °F 51.1 °F 93% 30.18 in 0.2 mi Calm Calm - N/A Fog Fog
6:00 AM 54.0 °F 52.0 °F 93% 30.18 in 2.5 mi Calm Calm - N/A   Clear
6:07 AM 54.0 °F 53.1 °F 97% 30.18 in 3.0 mi Calm Calm - N/A   Clear
6:52 AM 59.0 °F 57.0 °F 93% 30.19 in 6.0 mi Calm Calm - N/A   Clear
7:52 AM 64.0 °F 59.0 °F 84% 30.19 in 10.0 mi Calm Calm - N/A   Clear
8:52 AM 69.1 °F 57.9 °F 68% 30.19 in 10.0 mi East 5.8 mph - N/A   Clear
9:52 AM 73.0 °F 57.0 °F 57% 30.18 in 10.0 mi East 8.1 mph - N/A   Clear
10:52 AM 71.1 °F 57.0 °F 61% 30.18 in 10.0 mi SE 5.8 mph - N/A   Clear
11:52 AM 71.1 °F 57.0 °F 61% 30.18 in 10.0 mi Variable 3.5 mph - 0.00 in Rain Light Rain
12:52 PM 70.0 °F 60.1 °F 71% 30.19 in 10.0 mi Variable 4.6 mph - 0.00 in Rain Light Rain
1:52 PM 68.0 °F 61.0 °F 78% 30.17 in 10.0 mi Calm Calm - 0.01 in Rain Light Rain
2:52 PM 69.1 °F 62.1 °F 78% 30.17 in 10.0 mi Calm Calm - 0.01 in Rain Light Rain
3:52 PM 66.9 °F 63.0 °F 87% 30.14 in 10.0 mi NE 3.5 mph - 0.01 in Rain Light Rain
4:52 PM 66.9 °F 61.0 °F 81% 30.13 in 10.0 mi East 5.8 mph - 0.01 in Rain Light Rain
5:52 PM 64.9 °F 60.1 °F 84% 30.10 in 10.0 mi East 8.1 mph - 0.01 in Rain Light Rain
6:52 PM 64.0 °F 60.1 °F 87% 30.10 in 8.0 mi ESE 5.8 mph - 0.02 in Rain Light Rain
7:52 PM 62.1 °F 59.0 °F 90% 30.08 in 5.0 mi ENE 5.8 mph - 0.05 in Rain Light Rain
8:52 PM 61.0 °F 57.9 °F 90% 30.06 in 6.0 mi ENE 5.8 mph - 0.07 in Rain Rain
9:52 PM 60.1 °F 57.9 °F 93% 30.02 in 5.0 mi East 9.2 mph - 0.12 in Rain Rain
10:11 PM 60.1 °F 57.0 °F 90% 30.02 in 7.0 mi East 6.9 mph - 0.02 in Rain Light Rain
10:42 PM 60.1 °F 57.0 °F 90% 30.02 in 2.5 mi ESE 9.2 mph - 0.19 in Rain Heavy Rain
10:49 PM 60.8 °F 57.2 °F 88% 30.02 in 2.5 mi East 8.1 mph - 0.23 in Rain Heavy Rain
10:52 PM 59.0 °F 57.0 °F 93% 30.02 in 3.0 mi East 6.9 mph - 0.24 in Rain Heavy Rain
11:03 PM 59.0 °F 57.0 °F 93% 30.02 in 2.5 mi East 6.9 mph - 0.08 in Rain Heavy Rain
11:40 PM 59.0 °F 57.0 °F 93% 30.01 in 4.0 mi East 5.8 mph - 0.34 in Rain Heavy Rain
11:52 PM 59.0 °F 57.0 °F 93% 30.00 in 4.0 mi East 5.8 mph - 0.37 in Rain Rain